Weather History for Custer, SD

Change the Weather History Date:

Wednesday, September 5, 2012

  Actual Average Record
Temperature  
Mean Temperature 58 °F 59 °F  
Max Temperature 73 °F 73 °F 94 °F (1978)
Min Temperature 42 °F 45 °F 26 °F (1962)
Degree Days  
Heating Degree Days 7 7  
Month to date heating degree days 8 31  
Since 1 July heating degree days 77 185  
Cooling Degree Days 0 1  
Month to date cooling degree days 15 5  
Year to date cooling degree days 382 171  
Growing Degree Days 8 (Base 50)    
Moisture  
Dew Point 28 °F    
Average Humidity 37    
Maximum Humidity 57    
Minimum Humidity 17    
Precipitation  
Precipitation 0.00 in 0.07 in 1.04 in (1971)
Month to date precipitation T 0.34  
Year to date precipitation 10.14 15.26  
Sea Level Pressure  
Sea Level Pressure 29.97 in    
Wind  
Wind Speed 5 mph (WNW)    
Max Wind Speed 16 mph    
Max Gust Speed 22 mph    
Visibility 10 miles    
Events      
T = Trace of Precipitation, MM = Missing Value Source: NWS Daily Summary

Daily Weather History Graph

Daily Weather History Graph

Search for Another Location

Airport:

Trip Planner

Search our weather history database for the weather conditions in past years. The results will help you decide how hot, cold, wet, or windy it might be!

Date:

Astronomy

Sep. 05, 2012 Rise Set
Actual Time 6:23 AM MDT 7:21 PM MDT
Civil Twilight 5:53 AM MDT 7:51 PM MDT
Nautical Twilight 5:18 AM MDT 8:26 PM MDT
Astronomical Twilight 4:42 AM MDT 9:02 PM MDT
Moon 9:40 PM MDT (9/5) 11:41 AM MDT (9/5)
Length of Visible Light 13h 57m
Length of Day
12h 58m
Waning Gibbous, 75% of the Moon is Illuminated
Sep 5
Waning Gibbous
Sep 8
Last Quarter
Sep 15
New
Sep 22
First Quarter
Sep 29
Full

Hourly Weather History & Observations

Time (MDT) Temp. Dew Point Humidity Pressure Visibility Wind Dir Wind Speed Gust Speed Precip Events Conditions
12:53 AM 52.0 °F 33.1 °F 49% 30.00 in 10.0 mi NNW 5.8 mph - N/A   Clear
1:53 AM 51.1 °F 33.1 °F 50% 30.00 in 10.0 mi North 6.9 mph - N/A   Clear
2:53 AM 48.0 °F 32.0 °F 54% 30.01 in 10.0 mi NNW 3.5 mph - N/A   Clear
3:53 AM 48.9 °F 30.9 °F 50% 30.01 in 10.0 mi NW 4.6 mph - N/A   Clear
4:53 AM 43.0 °F 28.9 °F 58% 30.04 in 10.0 mi Calm Calm - N/A   Clear
5:53 AM 46.0 °F 30.0 °F 54% 30.04 in 10.0 mi Calm Calm - N/A   Clear
6:53 AM 46.9 °F 28.0 °F 48% 30.05 in 10.0 mi Calm Calm - N/A   Clear
7:53 AM 52.0 °F 27.0 °F 38% 30.06 in 10.0 mi Calm Calm - N/A   Clear
8:53 AM 60.1 °F 23.0 °F 24% 30.03 in 10.0 mi Calm Calm - N/A   Clear
9:53 AM 64.9 °F 26.1 °F 23% 30.01 in 6.0 mi Variable 3.5 mph - N/A   Haze
10:53 AM 68.0 °F 27.0 °F 21% 29.99 in 6.0 mi West 9.2 mph 16.1 mph N/A   Haze
11:53 AM 68.0 °F 27.0 °F 21% 29.98 in 10.0 mi Variable 5.8 mph 17.3 mph N/A   Clear
12:53 PM 69.1 °F 26.1 °F 20% 29.96 in 10.0 mi WSW 8.1 mph 18.4 mph N/A   Clear
1:53 PM 70.0 °F 25.0 °F 18% 29.94 in 10.0 mi SW 9.2 mph 17.3 mph N/A   Clear
2:53 PM 72.0 °F 25.0 °F 17% 29.94 in 10.0 mi West 11.5 mph 18.4 mph N/A   Clear
3:53 PM 71.1 °F 25.0 °F 18% 29.92 in 10.0 mi WSW 10.4 mph 18.4 mph N/A   Clear
4:53 PM 71.1 °F 24.1 °F 17% 29.93 in 10.0 mi West 10.4 mph 17.3 mph N/A   Clear
5:53 PM 71.1 °F 24.1 °F 17% 29.91 in 10.0 mi WSW 8.1 mph - N/A   Clear
6:53 PM 69.1 °F 25.0 °F 19% 29.91 in 10.0 mi Calm Calm - N/A   Clear
7:53 PM 63.0 °F 26.1 °F 25% 29.91 in 7.0 mi East 3.5 mph - N/A   Clear
8:53 PM 57.0 °F 28.0 °F 33% 29.92 in 10.0 mi North 3.5 mph - N/A   Clear
9:53 PM 55.9 °F 30.0 °F 37% 29.90 in 10.0 mi NNE 4.6 mph - N/A   Clear
10:53 PM 48.9 °F 28.0 °F 44% 29.89 in 10.0 mi North 4.6 mph - N/A   Clear
11:53 PM 48.9 °F 28.9 °F 46% 29.88 in 10.0 mi Calm Calm - N/A   Clear